This is the latest recevied weather packets stored in our database for station/object DL1GHN-6. If no packets are shown the sender has not sent any weather packets the latest 10 day(s).
| Time | Temp. | Humidity | Pressure | Rain* | Wind** | Luminosity | Snow |
|---|---|---|---|---|---|---|---|
| 1777457732 | 20° C | 42% | 1019.3 hPa | 0 mm | - | 744 W/m² | - |
| 1777457432 | 20° C | 43% | 1019.3 hPa | 0 mm | - | 742 W/m² | - |
| 1777457133 | 19.44° C | 45% | 1019.2 hPa | 0 mm | - | 749 W/m² | - |
| 1777456834 | 19.44° C | 47% | 1019.2 hPa | 0 mm | - | 747 W/m² | - |
| 1777456533 | 19.44° C | 46% | 1019.3 hPa | 0 mm | - | 742 W/m² | - |
| 1777456233 | 19.44° C | 48% | 1019.3 hPa | 0 mm | - | 738 W/m² | - |
| 1777455933 | 19.44° C | 48% | 1019.3 hPa | 0 mm | - | 728 W/m² | - |
| 1777455634 | 19.44° C | 46% | 1019.3 hPa | 0 mm | - | 677 W/m² | - |
| 1777455333 | 18.89° C | 47% | 1019.3 hPa | 0 mm | - | 719 W/m² | - |
| 1777455033 | 18.89° C | 47% | 1019.3 hPa | 0 mm | - | 708 W/m² | - |
| 1777454732 | 18.89° C | 44% | 1019.3 hPa | 0 mm | - | 701 W/m² | - |
| 1777454433 | 18.33° C | 48% | 1019.2 hPa | 0 mm | - | 691 W/m² | - |
| 1777454132 | 17.78° C | 47% | 1019.3 hPa | 0 mm | - | 686 W/m² | - |
| 1777453833 | 17.78° C | 47% | 1019.4 hPa | 0 mm | - | 679 W/m² | - |
| 1777453533 | 17.78° C | 47% | 1019.4 hPa | 0 mm | - | 668 W/m² | - |
| 1777453232 | 17.78° C | 46% | 1019.4 hPa | 0 mm | - | 659 W/m² | - |
| 1777452932 | 17.78° C | 49% | 1019.4 hPa | 0 mm | - | 649 W/m² | - |
| 1777452633 | 17.22° C | 50% | 1019.5 hPa | 0 mm | - | 636 W/m² | - |
| 1777452333 | 17.22° C | 48% | 1019.4 hPa | 0 mm | - | 629 W/m² | - |
| 1777452032 | 16.67° C | 52% | 1019.3 hPa | 0 mm | - | 615 W/m² | - |
| 1777451732 | 16.67° C | 52% | 1019.4 hPa | 0 mm | - | 610 W/m² | - |
| 1777451433 | 16.67° C | 52% | 1019.4 hPa | 0 mm | - | 598 W/m² | - |
| 1777451133 | 16.11° C | 52% | 1019.4 hPa | 0 mm | - | 585 W/m² | - |
| 1777450833 | 15.56° C | 52% | 1019.4 hPa | 0 mm | - | 573 W/m² | - |
| 1777450532 | 15.56° C | 51% | 1019.5 hPa | 0 mm | - | 561 W/m² | - |
* Rain latest hour (hover to see other rain measurements)
** Current wind speed in m/s (hover to see current wind gust speed)